YUNHAI 1-02

导读

YUNHAI 1-02(云海一号02星)是中国研制的环境探测卫星,由中国航天科技集团上海航天技术研究院研发。该卫星于北京时间2019年9月25日8时54分,在酒泉卫星发射中心通过长征二号丁运载火箭发射升空,顺利进入预定轨道。它主要承担大气海洋环境要素探测、空间环境探测、防灾减灾和科学试验任务,可为相关领域研究提供数据支撑。

基本信息
目录编号:
44547
目录名称:
YUNHAI 1-02
国际标识:
2019-063A
轨道中心:
EARTH
卫星名称:
YUNHAI 1-02
卫星全名:
--
卫星状态:
在轨 (已飞行2457 天)
发射日期:
2019-09-25 UTC
国别 :
中国 (CN)
星等 :
--
轨道信息
数据来源 国际轨道数据 AOE轨道数据
星历时间 2026-06-17T12:50:30+0800
5小时前
查看轨道信息
2026-06-15T09:00:00+0800
2天前
查看轨道信息
半长轴 7160.843km 7160.862km
偏心率 0.0006439 0.000606
轨道倾角 98.412° 98.415°
近地点辐角 144.442° 157.381°
升交点赤经 178.650° 176.553°
平近点角 215.719° 228.146°
近地点 778.095km 778.385km
远地点 787.317km 787.065km
周期 100.509分钟 100.510分钟
每日圈数 14.327044 14.326986
详细信息
使用方式:
暂无
2D轨道图
3D轨道图
轨道高度分析图
轨道倾角分析图
轨道综合分析图
查看轨道综合分析图